Location: Nairn
(57.5833°N, 3.8667°W)
Time: 03:12:18
(UTC+00:00)

Explorer 7 - Pass Details

Date: 28 November 2020
Orbit: 484 x 678 km, 50.3° (Epoch: 25 January)

Event Time Altitude Azimuth Distance (km) Brightness Sun altitude
Exits shadow 06:13:43 19° 233° (SW) 1,339 8.4 -16.6°
Maximum altitude 06:15:35 27° 193° (SSW) 1,065 8.3 -16.4°
Drops below altitude 10° 06:18:59 10° 134° (SE) 1,762 10.3 -15.9°
Sets 06:21:21 0° 122° (ESE) 2,620 11.8 -15.6°
